Regional Weather Roundup
Issued by NWS

Home | Current Version | Previous Version | Text Only | Print | Product List | Glossary Off
Versions: 1 2 3 4 5 6 7 8 9 10 11 12 13 14 15 16 17 18 19 20 21 22 23 24 25 26 27

000
ASUS45 KTFX 301310
RWRMT
MONTANA REGIONAL WEATHER ROUNDUP
NATIONAL WEATHER SERVICE GREAT FALLS MT
700 AM MDT TUE AUG 30 2016

NOTE: "FAIR" INDICATES FEW OR NO CLOUDS BELOW 12000 FEET WITH NO
SIGNIFICANT WEATHER AND/OR OBSTRUCTIONS TO VISIBILITY.

MTZ001>007-043-301400-
WEST OF THE DIVIDE

CITY           SKY/WX    TMP DP  RH WIND       PRES   REMARKS
KALISPELL      CLEAR     52  47  83 N8        30.07S
MISSOULA       PTCLDY    55  40  56 CALM      30.11R
BUTTE          CLOUDY    45  31  58 SE6       30.25S
MULLAN PASS    MOCLDY    64  35  34 SE7       30.21S
DEER LODGE       N/A     46  36  66 CALM      30.22S
EUREKA           N/A     46  45  93 CALM      30.08S
HAMILTON         N/A     54  39  58 CALM      30.12R
LIBBY            N/A     50  45  81 CALM      30.07S
RONAN            N/A     49  43  80 CALM      30.10F
$$

MTZ008-052>055-301400-
SOUTHWEST MONTANA

CITY           SKY/WX    TMP DP  RH WIND       PRES   REMARKS
BOZEMAN        PTCLDY    47  42  83 E5        30.19R
DILLON         PTCLDY    54  31  41 S7        30.21S
W YELLOWSTONE  CLOUDY    32  21  64 CALM      30.39R
ENNIS          MOCLDY    48  27  43 NE7       30.29R
THREE FORKS      N/A     47  40  76 CALM      30.16R
$$

MTZ009-010-012-014-046-048-049-054-301400-
EAST SLOPES AND CENTRAL MONTANA

CITY           SKY/WX    TMP DP  RH WIND       PRES   REMARKS
CUT BANK       PTCLDY    47  45  93 NW7       30.15S
GREAT FALLS    MOCLDY    54  44  69 SW6       30.13R
MALMSTROM AFB  PTCLDY    59  46  63 SW5       30.12R
HELENA         CLEAR     59  40  49 S3        30.16R
CHOTEAU          N/A     55  46  71 W5        30.15F
$$

MTZ011-013-016-021-045-047-050-051-301400-
NORTH CENTRAL MONTANA

CITY           SKY/WX    TMP DP  RH WIND       PRES   REMARKS
HAVRE          PTCLDY    67  49  52 E15       30.07S
LEWISTOWN      CLOUDY    63  47  55 SE6       30.16R
N BAR RANCH      N/A     52  45  76 W6        30.20R
CHINOOK          N/A     64  48  55 E9        30.08R
$$

MTZ017>020-022>027-061-062-301400-
NORTHEAST MONTANA

CITY           SKY/WX    TMP DP  RH WIND       PRES   REMARKS
GLASGOW        CLOUDY    59  47  64 VRB3      30.18R
JORDAN           N/A     63  48  58 N15       30.15R
SIDNEY         PTCLDY    54  47  77 CALM      30.19F
WOLF POINT     CLEAR     55  46  71 E6        30.16R
PLENTYWOOD       N/A     55  45  67 NE6       30.21R
POPLAR           N/A     57  46  67 N5        30.16S
$$

MTZ028>42-056>058-301400-
SOUTHCENTRAL AND SOUTHEAST MONTANA

CITY           SKY/WX    TMP DP  RH WIND       PRES   REMARKS
BAKER          CLOUDY    61  53  75 SE20      30.22R
BILLINGS       MOCLDY    62  49  62 SW3       30.13R
LIVINGSTON     CLOUDY    51  43  74 NW9       30.20R
MILES CITY     CLEAR     63  49  60 NE8       30.12S
EKALAKA          N/A     63  58  83 SE16      30.16F
FORSYTH          N/A     61  52  72 NE5       30.10R
LAUREL           N/A     54  44  68 W3        30.11R
ROUNDUP          N/A     58  46  64 CALM      30.04S
$$

REGIONAL REPORTS...DAKOTAS

CITY           SKY/WX    TMP DP  RH WIND       PRES   REMARKS
WILLISTON      CLOUDY    55  45  68 CALM      30.21S
MINOT          CLEAR     50  45  83 CALM      30.26R
DICKINSON      CLEAR     55  49  80 S14       30.24R
CROSBY           N/A     48  45  87 CALM      30.26R
WATFORD CITY     N/A     55  45  67 E3        30.23S
BISMARCK       CLEAR     49  48  97 SE5       30.28R
GRAND FORKS    SUNNY     54  49  83 CALM      30.25R
FARGO          SUNNY     54  50  86 CALM      30.25S
BUFFALO SD       N/A     64  59  83 SE8       30.19S
RAPID CITY     CLOUDY    63  62  97 CALM      30.25S FOG
$$

REGIONAL REPORTS...WYOMING/IDAHO/WASHINGTON

CITY           SKY/WX    TMP DP  RH WIND       PRES   REMARKS
GILLETTE       CLEAR     64  53  67 S12       30.25R
SHERIDAN       CLEAR     54  42  64 S3        30.17S
BUFFALO WY     CLEAR     62  37  39 S7        30.26S
CODY           CLOUDY    63  36  36 S7        30.24R
YELLOWSTONE LA   N/A     37  34  89 NW3       30.48R
IDAHO FALLS    CLOUDY    49  37  63 N7        30.19S
SALMON         CLOUDY    54  37  54 S3        30.16
BOISE          PTCLDY    68  32  26 SE8       29.98R
SPOKANE        MOCLDY    62  46  55 NE5       29.98F
$$

REGIONAL REPORTS...ALBERTA

CITY           SKY/WX    TMP DP  RH WIND       PRES   REMARKS
EDMONTON       MOCLDY    48  43  81 E8        30.14S
CALGARY        PTCLDY    54  48  82 SW5       30.11F
LETHBRIDGE     PTCLDY    50  50 100 S15       30.11F
MEDICINE HAT   PTCLDY    59  54  82 E7        30.08F
$$

REGIONAL REPORTS...SASKATCHEWAN

CITY           SKY/WX    TMP DP  RH WIND       PRES   REMARKS
SWIFT CURRENT  CLOUDY    52  46  82 E13       30.14F
REGINA         MOCLDY    57  45  62 E14G21    30.24S
SASKATOON      MOCLDY    46  46 100 NE9       30.25F
$$




USA.gov is the U.S. government's official web portal to all federal, state and local government web resources and services.